Andover, NJ

11:01 PM EST on December 06, 2019 (GMT -0500)
Andover

Weather History for K12N - September, 2019

Change the Weather History Date:

Wednesday, September 18, 2019

  Actual Average (WUND) Record (WUND)
Temperature  
Mean Temperature 60 °F -  
Max Temperature 71 °F - - (-1)
Min Temperature 48 °F - - (-1)
Degree Days  
Heating Degree Days 6    
Growing Degree Days 10 (Base 50)    
Moisture  
Dew Point 48 °F    
Average Humidity 74    
Maximum Humidity 93    
Minimum Humidity 38    
Precipitation  
Precipitation 0.00 in - - ()
Sea Level Pressure  
Sea Level Pressure 30.25 in    
Wind  
Wind Speed 2 mph (NNE)    
Max Wind Speed 7 mph    
Max Gust Speed -    
Averages and records for this station are not official NWS values.
T = Trace of Precipitation, MM = Missing Value Source: NWS Daily Summary

Daily Weather History Graph

Daily Weather History Graph

Search for Another Location

Airport or City:

Astronomy

Sep. 18, 2019 Rise Set
Actual Time 6:42 AM EDT 7:03 PM EDT
Civil Twilight 6:14 AM EDT 7:30 PM EDT
Nautical Twilight 5:42 AM EDT 8:03 PM EDT
Astronomical Twilight 5:09 AM EDT 8:36 PM EDT
Moon 9:34 PM EDT (9/18) 10:44 AM EDT (9/18)
Length of Visible Light 13h 16m
Length of Day
12h 21m
Waning Gibbous, 82% of the Moon is Illuminated
Sep 18
Waning Gibbous
Sep 21
Last Quarter
Sep 28
New
Oct 5
First Quarter
Oct 13
Full

Hourly Weather History & Observations

Time (EDT) Temp. Dew Point Humidity Pressure Visibility Wind Dir Wind Speed Gust Speed Precip Events Conditions
12:54 AM 51.1 °F 48.9 °F 92% 30.18 in - Calm Calm - N/A   Unknown
1:54 AM 50.0 °F 48.0 °F 93% 30.19 in - Calm Calm - N/A   Unknown
2:54 AM 50.0 °F 48.0 °F 93% 30.18 in - Calm Calm - N/A   Unknown
3:54 AM 51.1 °F 48.0 °F 89% 30.19 in - NE 4.6 mph - N/A   Unknown
4:54 AM 50.0 °F 46.9 °F 89% 30.19 in - NNE 3.5 mph - N/A   Unknown
5:54 AM 48.9 °F 46.9 °F 93% 30.22 in - Calm Calm - N/A   Unknown
6:54 AM 48.9 °F 46.9 °F 93% 30.24 in - Calm Calm - N/A   Unknown
7:54 AM 51.1 °F 48.0 °F 89% 30.26 in - NNE 3.5 mph - N/A   Unknown
8:54 AM 55.9 °F 48.9 °F 77% 30.27 in - Variable 6.9 mph - N/A   Unknown
9:54 AM 60.1 °F 50.0 °F 69% 30.27 in - Variable 5.8 mph - N/A   Unknown
10:54 AM 64.9 °F 51.1 °F 61% 30.27 in - North 5.8 mph - N/A   Unknown
11:54 AM 64.9 °F 50.0 °F 58% 30.26 in - Variable 5.8 mph - N/A   Unknown
12:54 PM 66.0 °F 48.9 °F 54% 30.25 in - Variable 3.5 mph - N/A   Unknown
1:54 PM 68.0 °F 46.9 °F 47% 30.24 in - Variable 3.5 mph - N/A   Unknown
2:54 PM 69.1 °F 46.9 °F 45% 30.24 in - NE 4.6 mph - N/A   Unknown
3:54 PM 71.1 °F 44.1 °F 38% 30.24 in - Variable 3.5 mph - N/A   Unknown
4:54 PM 69.1 °F 45.0 °F 42% 30.23 in - Variable 6.9 mph - N/A   Unknown
5:54 PM 69.1 °F 48.0 °F 47% 30.25 in - Calm Calm - N/A   Unknown
6:54 PM 60.1 °F 50.0 °F 69% 30.25 in - Calm Calm - N/A   Unknown
7:54 PM 55.0 °F 51.1 °F 86% 30.28 in - Calm Calm - N/A   Unknown
8:54 PM 52.0 °F 50.0 °F 93% 30.30 in - Calm Calm - N/A   Unknown
9:54 PM 53.1 °F 48.9 °F 86% 30.31 in - Calm Calm - N/A   Unknown
10:54 PM 51.1 °F 48.0 °F 89% 30.32 in - Calm Calm - N/A   Unknown
11:54 PM 50.0 °F 46.9 °F 89% 30.33 in - Calm Calm - N/A   Unknown